,,,PA_Meas_PMT16A,,PR_Meas_QMR101_102,,RH_Meas_QMH101,,SR_Meas_QMS101,,TA_Meas_QMH101,,GenWind,,GenWind,
date,time,status,PA,status,PR,status,RH,status,SR,status,TA,status,DirAvg,status,SpdAvg,
2009-04-03, 00:00:04,VALID,1000.06,VALID,0,VALID,88.5875,VALID,0,VALID,24.796,VALID,298,VALID,1.15352,
2009-04-03, 00:01:04,VALID,1000.07,VALID,0,VALID,89.2589,VALID,0,VALID,24.6594,VALID,299,VALID,0.959766,
2009-04-03, 00:02:04,VALID,1000.04,VALID,0,VALID,89.8998,VALID,0,VALID,24.5227,VALID,280,VALID,0.935938,
2009-04-03, 00:03:04,VALID,1000.06,VALID,0,VALID,90.3728,VALID,0,VALID,24.4446,VALID,258,VALID,0.852344,
2009-04-03, 00:04:04,VALID,1000.04,VALID,0,VALID,90.6475,VALID,0,VALID,24.3842,VALID,257,VALID,0.555859,
2009-04-03, 00:05:04,VALID,1000.05,VALID,0,VALID,90.8535,VALID,0,VALID,24.347,VALID,255,VALID,0.679297,
2009-04-03, 00:06:04,VALID,1000.02,VALID,0,VALID,90.9909,VALID,0,VALID,24.308,VALID,255,VALID,0.208984,
2009-04-03, 00:07:04,VALID,1000.01,VALID,0,VALID,91.0214,VALID,0,VALID,24.269,VALID,255,VALID,0.0429688,
2009-04-03, 00:08:04,VALID,1000.01,VALID,0,VALID,91.2274,VALID,0,VALID,24.2281,VALID,255,VALID,0.119141,
2009-04-03, 00:09:04,VALID,1000.02,VALID,0,VALID,91.2731,VALID,0,VALID,24.2104,VALID,255,VALID,0,
2009-04-03, 00:10:04,VALID,1000.02,VALID,0,VALID,91.5554,VALID,0,VALID,24.2104,VALID,255,VALID,0.360156,
2009-04-03, 00:11:04,VALID,999.984,VALID,0,VALID,91.6165,VALID,0,VALID,24.1909,VALID,255,VALID,0.165625,
2009-04-03, 00:12:04,VALID,1000,VALID,0,VALID,91.6623,VALID,0,VALID,24.1696,VALID,255,VALID,0.275781,
2009-04-03, 00:13:04,VALID,999.989,VALID,0,VALID,91.708,VALID,0,VALID,24.15,VALID,255,VALID,0.398438,
2009-04-03, 00:14:04,VALID,999.975,VALID,0,VALID,91.6851,VALID,0,VALID,24.1714,VALID,255,VALID,0.114844,
2009-04-03, 00:15:04,VALID,999.996,VALID,0,VALID,91.792,VALID,0,VALID,24.1305,VALID,255,VALID,0.426953,
2009-04-03, 00:16:04,VALID,999.998,VALID,0,VALID,91.8072,VALID,0,VALID,24.1305,VALID,255,VALID,0.0105469,
2009-04-03, 00:17:04,VALID,1000.01,VALID,0,VALID,91.853,VALID,0,VALID,24.1128,VALID,255,VALID,0.299219,
2009-04-03, 00:18:04,VALID,1000.03,VALID,0,VALID,92.0437,VALID,0,VALID,24.1324,VALID,253,VALID,0.431641,
2009-04-03, 00:19:04,VALID,1000.06,VALID,0,VALID,91.8988,VALID,0,VALID,24.1519,VALID,253,VALID,0.0882813,
2009-04-03, 00:20:04,VALID,1000.08,VALID,0,VALID,91.8454,VALID,0,VALID,24.1324,VALID,177,VALID,0.273438,
2009-04-03, 00:21:04,VALID,1000.08,VALID,0,VALID,92.0437,VALID,0,VALID,24.111,VALID,177,VALID,0.204688,
2009-04-03, 00:22:04,VALID,1000.05,VALID,0,VALID,91.9369,VALID,0,VALID,24.111,VALID,177,VALID,0.151953,
2009-04-03, 00:23:04,VALID,1000.08,VALID,0,VALID,91.9217,VALID,0,VALID,24.0915,VALID,177,VALID,0,
2009-04-03, 00:24:04,VALID,1000.04,VALID,0,VALID,91.9598,VALID,0,VALID,24.0933,VALID,177,VALID,0,
2009-04-03, 00:25:04,VALID,1000.04,VALID,0,VALID,91.9674,VALID,0,VALID,24.0738,VALID,177,VALID,0.00429688,
2009-04-03, 00:26:04,VALID,1000.07,VALID,0,VALID,92.0666,VALID,0,VALID,24.0738,VALID,177,VALID,0.136719,
2009-04-03, 00:27:04,VALID,1000.05,VALID,0,VALID,92.1277,VALID,0,VALID,24.0329,VALID,235,VALID,0.4625,
2009-04-03, 00:28:04,VALID,1000.04,VALID,0,VALID,92.0743,VALID,0,VALID,24.0348,VALID,313,VALID,0.792578,
2009-04-03, 00:29:04,VALID,1000.03,VALID,0,VALID,92.2574,VALID,0,VALID,23.9744,VALID,313,VALID,0.693359,
2009-04-03, 00:30:04,VALID,1000.03,VALID,0,VALID,92.2726,VALID,0,VALID,23.9744,VALID,313,VALID,0.518359,
2009-04-03, 00:31:04,VALID,1000.03,VALID,0,VALID,92.3794,VALID,0,VALID,23.9549,VALID,313,VALID,0.366406,
2009-04-03, 00:32:04,VALID,1000.01,VALID,0,VALID,92.4481,VALID,0,VALID,23.9372,VALID,313,VALID,0.347266,
2009-04-03, 00:33:04,VALID,1000,VALID,0,VALID,92.5244,VALID,0,VALID,23.9159,VALID,313,VALID,0.0648438,
2009-04-03, 00:34:04,VALID,999.975,VALID,0,VALID,92.6083,VALID,0,VALID,23.9177,VALID,313,VALID,0.314063,
2009-04-03, 00:35:04,VALID,999.948,VALID,0,VALID,92.616,VALID,0,VALID,23.8982,VALID,312,VALID,0.369531,
2009-04-03, 00:36:04,VALID,999.944,VALID,0,VALID,92.7228,VALID,0,VALID,23.8768,VALID,312,VALID,0.35,
2009-04-03, 00:37:04,VALID,999.948,VALID,0,VALID,92.6388,VALID,0,VALID,23.8573,VALID,312,VALID,0.147266,
2009-04-03, 00:38:04,VALID,999.944,VALID,0,VALID,92.7457,VALID,0,VALID,23.8378,VALID,301,VALID,0.399609,
2009-04-03, 00:39:04,VALID,999.947,VALID,0,VALID,92.9898,VALID,0,VALID,23.8786,VALID,257,VALID,0.448047,
2009-04-03, 00:40:04,VALID,999.89,VALID,0,VALID,92.9669,VALID,0,VALID,23.8573,VALID,257,VALID,0.0980469,
2009-04-03, 00:41:04,VALID,999.905,VALID,0,VALID,92.9898,VALID,0,VALID,23.8786,VALID,257,VALID,0.386719,
2009-04-03, 00:42:04,VALID,999.867,VALID,0,VALID,93.0356,VALID,0,VALID,23.8786,VALID,257,VALID,0.397266,
2009-04-03, 00:43:04,VALID,999.855,VALID,0,VALID,92.9135,VALID,0,VALID,23.8768,VALID,271,VALID,0.501562,
2009-04-03, 00:44:04,VALID,999.855,VALID,0,VALID,92.9211,VALID,0,VALID,23.8768,VALID,296,VALID,0.566016,
2009-04-03, 00:45:04,VALID,999.852,VALID,0,VALID,92.8448,VALID,0,VALID,23.8982,VALID,296,VALID,0.354688,
2009-04-03, 00:46:04,VALID,999.832,VALID,0,VALID,92.7533,VALID,0,VALID,23.8786,VALID,296,VALID,0.253516,
2009-04-03, 00:47:04,VALID,999.812,VALID,0,VALID,92.7609,VALID,0,VALID,23.8591,VALID,296,VALID,0.300391,
2009-04-03, 00:48:04,VALID,999.778,VALID,0,VALID,92.7762,VALID,0,VALID,23.8396,VALID,321,VALID,0.657812,
2009-04-03, 00:49:04,VALID,999.765,VALID,0,VALID,92.7838,VALID,0,VALID,23.7793,VALID,329,VALID,0.964453,
2009-04-03, 00:50:04,VALID,999.749,VALID,0,VALID,92.944,VALID,0,VALID,23.7811,VALID,331,VALID,0.833984,
2009-04-03, 00:51:04,VALID,999.733,VALID,0,VALID,93.1043,VALID,0,VALID,23.7597,VALID,331,VALID,0.720312,
2009-04-03, 00:52:04,VALID,999.674,VALID,0,VALID,93.1043,VALID,0,VALID,23.742,VALID,331,VALID,0.519141,
2009-04-03, 00:53:04,VALID,999.679,VALID,0,VALID,93.1882,VALID,0,VALID,23.7225,VALID,331,VALID,0.416016,
2009-04-03, 00:54:04,VALID,999.674,VALID,0,VALID,93.3179,VALID,0,VALID,23.703,VALID,331,VALID,0.329688,
2009-04-03, 00:55:04,VALID,999.704,VALID,0,VALID,93.3789,VALID,0,VALID,23.703,VALID,331,VALID,0.174609,
2009-04-03, 00:56:04,VALID,999.707,VALID,0,VALID,93.4018,VALID,0,VALID,23.703,VALID,331,VALID,0,
2009-04-03, 00:57:04,VALID,999.753,VALID,0,VALID,93.3942,VALID,0,VALID,23.6622,VALID,331,VALID,0,
2009-04-03, 00:58:04,VALID,999.751,VALID,0,VALID,93.4094,VALID,0,VALID,23.6427,VALID,331,VALID,0,
2009-04-03, 00:59:04,VALID,999.756,VALID,0,VALID,93.5163,VALID,0,VALID,23.664,VALID,331,VALID,0.325,
2009-04-03, 01:00:04,VALID,999.742,VALID,0,VALID,93.6078,VALID,0,VALID,23.6445,VALID,331,VALID,0.160547,
2009-04-03, 01:01:04,VALID,999.726,VALID,0,VALID,93.7223,VALID,0,VALID,23.6427,VALID,331,VALID,0,
2009-04-03, 01:02:04,VALID,999.746,VALID,0,VALID,93.6536,VALID,0,VALID,23.664,VALID,331,VALID,0,
2009-04-03, 01:03:04,VALID,999.704,VALID,0,VALID,93.707,VALID,0,VALID,23.6445,VALID,331,VALID,0.00234375,
2009-04-03, 01:04:05,VALID,999.686,VALID,0,VALID,93.7909,VALID,0,VALID,23.664,VALID,331,VALID,0.643359,
2009-04-03, 01:05:05,VALID,999.679,VALID,0,VALID,93.7909,VALID,0,VALID,23.664,VALID,306,VALID,0.554297,
2009-04-03, 01:06:05,VALID,999.658,VALID,0,VALID,93.8748,VALID,0,VALID,23.664,VALID,304,VALID,0.239063,
2009-04-03, 01:07:05,VALID,999.669,VALID,0,VALID,93.8825,VALID,0,VALID,23.6835,VALID,304,VALID,0.291406,
2009-04-03, 01:08:05,VALID,999.707,VALID,0,VALID,93.8138,VALID,0,VALID,23.6835,VALID,304,VALID,0.305078,
2009-04-03, 01:09:05,VALID,999.739,VALID,0,VALID,93.7757,VALID,0,VALID,23.6622,VALID,336,VALID,0.702734,
2009-04-03, 01:10:05,VALID,999.736,VALID,0,VALID,93.7299,VALID,0,VALID,23.6445,VALID,14,VALID,1.02578,
2009-04-03, 01:11:05,VALID,999.783,VALID,0,VALID,93.8367,VALID,0,VALID,23.6445,VALID,14,VALID,1.01953,
2009-04-03, 01:12:05,VALID,999.782,VALID,0,VALID,93.8214,VALID,0,VALID,23.625,VALID,29,VALID,1.21836,
2009-04-03, 01:13:05,VALID,999.795,VALID,0,VALID,94.1114,VALID,0,VALID,23.664,VALID,38,VALID,1.7082,
2009-04-03, 01:14:05,VALID,999.819,VALID,0,VALID,94.5539,VALID,0,VALID,23.7616,VALID,53,VALID,2.58711,
2009-04-03, 01:15:05,VALID,999.869,VALID,0,VALID,94.7904,VALID,0,VALID,23.9567,VALID,54,VALID,3.05,
2009-04-03, 01:16:05,VALID,999.848,VALID,0,VALID,94.6912,VALID,0,VALID,24.0738,VALID,40,VALID,2.03867,
2009-04-03, 01:17:05,VALID,999.852,VALID,0.5,VALID,94.4928,VALID,0,VALID,24.1909,VALID,57,VALID,2.23398,
2009-04-03, 01:18:05,VALID,999.883,VALID,0,VALID,93.5391,VALID,0,VALID,24.1696,VALID,67,VALID,3.62109,
2009-04-03, 01:19:05,VALID,999.88,VALID,0,VALID,90.9909,VALID,0,VALID,24.1147,VALID,71,VALID,2.66758,
2009-04-03, 01:20:05,VALID,999.847,VALID,0.5,VALID,88.3968,VALID,0,VALID,24.0543,VALID,72,VALID,2.56953,
2009-04-03, 01:21:05,VALID,999.804,VALID,0,VALID,87.9543,VALID,0,VALID,23.9744,VALID,71,VALID,2.04688,
2009-04-03, 01:22:05,VALID,999.802,VALID,0.5,VALID,87.4126,VALID,0,VALID,23.8786,VALID,66,VALID,1.65859,
2009-04-03, 01:23:05,VALID,999.769,VALID,0,VALID,87.5346,VALID,0,VALID,23.8201,VALID,58,VALID,2.1082,
2009-04-03, 01:24:05,VALID,999.749,VALID,0.5,VALID,88.618,VALID,0,VALID,23.7616,VALID,70,VALID,1.64609,
2009-04-03, 01:25:05,VALID,999.721,VALID,0,VALID,88.7401,VALID,0,VALID,23.703,VALID,82,VALID,1.18672,
2009-04-03, 01:26:05,VALID,999.702,VALID,0,VALID,88.206,VALID,0,VALID,23.5859,VALID,87,VALID,1.6625,
2009-04-03, 01:27:05,VALID,999.648,VALID,0.5,VALID,88.6028,VALID,0,VALID,23.5079,VALID,98,VALID,1.55703,
2009-04-03, 01:28:05,VALID,999.616,VALID,0,VALID,89.3505,VALID,0,VALID,23.4298,VALID,123,VALID,0.898047,
2009-04-03, 01:29:05,VALID,999.614,VALID,0,VALID,89.7625,VALID,0,VALID,23.3518,VALID,133,VALID,0.626953,
2009-04-03, 01:30:05,VALID,999.591,VALID,0,VALID,90.3652,VALID,0,VALID,23.2737,VALID,139,VALID,0.648828,
2009-04-03, 01:31:05,VALID,999.586,VALID,0,VALID,91.0214,VALID,0,VALID,23.2542,VALID,154,VALID,0.419922,
2009-04-03, 01:32:05,VALID,999.611,VALID,0,VALID,91.2045,VALID,0,VALID,23.2134,VALID,156,VALID,0.563281,
2009-04-03, 01:33:05,VALID,999.579,VALID,0,VALID,90.6246,VALID,0,VALID,23.1744,VALID,156,VALID,1.03945,
2009-04-03, 01:34:05,VALID,999.57,VALID,0,VALID,90.9374,VALID,0,VALID,23.1762,VALID,163,VALID,0.802734,
2009-04-03, 01:35:05,VALID,999.58,VALID,0,VALID,91.1511,VALID,0,VALID,23.2152,VALID,172,VALID,0.711719,
2009-04-03, 01:36:05,VALID,999.555,VALID,0,VALID,91.2426,VALID,0,VALID,23.2737,VALID,189,VALID,0.964453,
2009-04-03, 01:37:05,VALID,999.545,VALID,0,VALID,91.4868,VALID,0,VALID,23.3518,VALID,232,VALID,0.8875,
2009-04-03, 01:38:05,VALID,999.493,VALID,0.5,VALID,91.6699,VALID,0,VALID,23.4103,VALID,260,VALID,0.929688,
2009-04-03, 01:39:05,VALID,999.511,VALID,0,VALID,91.8683,VALID,0,VALID,23.4103,VALID,286,VALID,0.703125,
2009-04-03, 01:40:05,VALID,999.511,VALID,0,VALID,91.9445,VALID,0,VALID,23.3713,VALID,315,VALID,0.743359,
2009-04-03, 01:41:05,VALID,999.498,VALID,0,VALID,91.4563,VALID,0,VALID,23.2932,VALID,338,VALID,1.01367,
2009-04-03, 01:42:05,VALID,999.443,VALID,0,VALID,91.6165,VALID,0,VALID,23.2542,VALID,338,VALID,1.00977,
2009-04-03, 01:43:05,VALID,999.434,VALID,0,VALID,91.647,VALID,0,VALID,23.2152,VALID,341,VALID,0.938672,
2009-04-03, 01:44:05,VALID,999.45,VALID,0,VALID,91.6623,VALID,0,VALID,23.1762,VALID,14,VALID,0.979688,
2009-04-03, 01:45:05,VALID,999.506,VALID,0,VALID,91.6165,VALID,0,VALID,23.1566,VALID,49,VALID,1.29414,
2009-04-03, 01:46:05,VALID,999.529,VALID,0,VALID,91.3723,VALID,0,VALID,23.1371,VALID,57,VALID,1.325,
2009-04-03, 01:47:05,VALID,999.498,VALID,0,VALID,91.6928,VALID,0,VALID,23.1762,VALID,41,VALID,1.33008,
2009-04-03, 01:48:05,VALID,999.551,VALID,0,VALID,91.1587,VALID,0,VALID,23.1762,VALID,29,VALID,2.0125,
2009-04-03, 01:49:05,VALID,999.549,VALID,0,VALID,91.708,VALID,0,VALID,23.2347,VALID,31,VALID,2.32578,
2009-04-03, 01:50:05,VALID,999.493,VALID,0,VALID,91.38,VALID,0,VALID,23.2524,VALID,16,VALID,2.3418,
2009-04-03, 01:51:05,VALID,999.47,VALID,0,VALID,91.4868,VALID,0,VALID,23.2737,VALID,6,VALID,1.94766,
2009-04-03, 01:52:05,VALID,999.417,VALID,0,VALID,91.4868,VALID,0,VALID,23.2932,VALID,350,VALID,1.09258,
2009-04-03, 01:53:05,VALID,999.391,VALID,0,VALID,91.0671,VALID,0,VALID,23.2737,VALID,325,VALID,0.998438,
2009-04-03, 01:54:05,VALID,999.382,VALID,0,VALID,90.8535,VALID,0,VALID,23.2542,VALID,317,VALID,0.881641,
2009-04-03, 01:55:05,VALID,999.387,VALID,0,VALID,90.556,VALID,0,VALID,23.2542,VALID,277,VALID,0.882813,
2009-04-03, 01:56:05,VALID,999.402,VALID,0,VALID,90.7314,VALID,0,VALID,23.2542,VALID,275,VALID,0.722656,
2009-04-03, 01:57:05,VALID,999.414,VALID,0,VALID,90.9374,VALID,0,VALID,23.2329,VALID,274,VALID,0.530859,
2009-04-03, 01:58:05,VALID,999.423,VALID,0,VALID,91.0824,VALID,0,VALID,23.2329,VALID,274,VALID,0.253125,
2009-04-03, 01:59:05,VALID,999.406,VALID,0,VALID,91.2655,VALID,0,VALID,23.2152,VALID,274,VALID,0.0554687,
2009-04-03, 02:00:05,VALID,999.441,VALID,0,VALID,91.502,VALID,0,VALID,23.1957,VALID,274,VALID,0.00078125,
2009-04-03, 02:01:05,VALID,999.391,VALID,0,VALID,91.7157,VALID,0,VALID,23.1762,VALID,191,VALID,0.641797,
2009-04-03, 02:02:05,VALID,999.354,VALID,0,VALID,91.7385,VALID,0,VALID,23.1957,VALID,185,VALID,0.626562,
2009-04-03, 02:03:05,VALID,999.367,VALID,0,VALID,91.6012,VALID,0,VALID,23.1762,VALID,184,VALID,0.58125,
2009-04-03, 02:04:05,VALID,999.342,VALID,0,VALID,91.5173,VALID,0,VALID,23.2152,VALID,184,VALID,0.54375,
2009-04-03, 02:05:05,VALID,999.344,VALID,0,VALID,91.3494,VALID,0,VALID,23.2737,VALID,184,VALID,0.438672,
2009-04-03, 02:06:05,VALID,999.308,VALID,0,VALID,91.3342,VALID,0,VALID,23.2932,VALID,184,VALID,0.301953,
2009-04-03, 02:07:05,VALID,999.316,VALID,0,VALID,91.1892,VALID,0,VALID,23.2915,VALID,184,VALID,0.364844,
2009-04-03, 02:08:05,VALID,999.277,VALID,0,VALID,90.9451,VALID,0,VALID,23.3518,VALID,187,VALID,0.502734,
2009-04-03, 02:09:05,VALID,999.293,VALID,0,VALID,90.9374,VALID,0,VALID,23.3908,VALID,201,VALID,0.649219,
2009-04-03, 02:10:05,VALID,999.304,VALID,0,VALID,91.2579,VALID,0,VALID,23.4493,VALID,182,VALID,1.0957,
2009-04-03, 02:11:05,VALID,999.316,VALID,0,VALID,90.884,VALID,0,VALID,23.5079,VALID,200,VALID,1.20625,
2009-04-03, 02:12:05,VALID,999.351,VALID,0,VALID,90.4415,VALID,0,VALID,23.5859,VALID,191,VALID,1.11875,
2009-04-03, 02:13:05,VALID,999.371,VALID,0,VALID,90.3652,VALID,0,VALID,23.6445,VALID,177,VALID,1.37773,
2009-04-03, 02:14:05,VALID,999.411,VALID,0,VALID,90.1745,VALID,0,VALID,23.703,VALID,176,VALID,1.38047,
2009-04-03, 02:15:05,VALID,999.443,VALID,0,VALID,90.6094,VALID,0,VALID,23.7616,VALID,158,VALID,1.80352,
2009-04-03, 02:16:05,VALID,999.514,VALID,0,VALID,90.4797,VALID,0,VALID,23.7811,VALID,146,VALID,2.22187,
2009-04-03, 02:17:05,VALID,999.449,VALID,0,VALID,90.8001,VALID,0,VALID,23.7616,VALID,172,VALID,1.61914,
2009-04-03, 02:18:05,VALID,999.428,VALID,0,VALID,91.3494,VALID,0,VALID,23.7207,VALID,153,VALID,1.60039,
2009-04-03, 02:19:05,VALID,999.425,VALID,0,VALID,91.7004,VALID,0,VALID,23.742,VALID,146,VALID,1.70664,
2009-04-03, 02:20:05,VALID,999.441,VALID,0,VALID,91.8606,VALID,0,VALID,23.742,VALID,149,VALID,2.19023,
2009-04-03, 02:21:05,VALID,999.451,VALID,0,VALID,92.1124,VALID,0,VALID,23.7402,VALID,148,VALID,2.23594,
2009-04-03, 02:22:05,VALID,999.516,VALID,0,VALID,92.1734,VALID,0,VALID,23.7616,VALID,138,VALID,2.08945,
2009-04-03, 02:23:05,VALID,999.524,VALID,0,VALID,92.3794,VALID,0,VALID,23.7811,VALID,135,VALID,1.80586,
2009-04-03, 02:24:05,VALID,999.531,VALID,0,VALID,92.2497,VALID,0,VALID,23.8006,VALID,136,VALID,3.05273,
2009-04-03, 02:25:05,VALID,999.397,VALID,0,VALID,92.0209,VALID,0,VALID,23.8591,VALID,151,VALID,2.96172,
2009-04-03, 02:26:05,VALID,999.355,VALID,0,VALID,92.0361,VALID,0,VALID,23.8786,VALID,177,VALID,3.20977,
2009-04-03, 02:27:05,VALID,999.327,VALID,0,VALID,91.586,VALID,0,VALID,23.9177,VALID,172,VALID,2.92422,
2009-04-03, 02:28:05,VALID,999.334,VALID,0,VALID,90.7849,VALID,0,VALID,23.9957,VALID,173,VALID,2.91641,
2009-04-03, 02:29:05,VALID,999.361,VALID,0,VALID,89.381,VALID,0,VALID,24.0543,VALID,176,VALID,2.97969,
2009-04-03, 02:30:05,VALID,999.306,VALID,0,VALID,89.5946,VALID,0,VALID,24.111,VALID,182,VALID,2.68594,
2009-04-03, 02:31:05,VALID,999.314,VALID,0,VALID,88.0077,VALID,0,VALID,24.1714,VALID,186,VALID,2.12422,
2009-04-03, 02:32:05,VALID,999.346,VALID,0,VALID,87.176,VALID,0,VALID,24.1714,VALID,167,VALID,1.37109,
2009-04-03, 02:33:05,VALID,999.401,VALID,0,VALID,87.2981,VALID,0,VALID,24.1714,VALID,135,VALID,0.696094,
2009-04-03, 02:34:05,VALID,999.396,VALID,0,VALID,87.1455,VALID,0,VALID,24.1714,VALID,112,VALID,0.978906,
2009-04-03, 02:35:05,VALID,999.368,VALID,0,VALID,87.7483,VALID,0,VALID,24.1128,VALID,89,VALID,0.798437,
2009-04-03, 02:36:05,VALID,999.381,VALID,0,VALID,89.0148,VALID,0,VALID,24.0933,VALID,62,VALID,0.110937,
2009-04-03, 02:37:05,VALID,999.394,VALID,0,VALID,89.114,VALID,0,VALID,24.0543,VALID,354,VALID,0.871094,
2009-04-03, 02:38:05,VALID,999.382,VALID,0,VALID,89.6023,VALID,0,VALID,23.9957,VALID,1,VALID,1.0832,
2009-04-03, 02:39:05,VALID,999.398,VALID,0,VALID,89.8922,VALID,0,VALID,23.9177,VALID,349,VALID,1.50625,
2009-04-03, 02:40:05,VALID,999.385,VALID,0,VALID,90.1134,VALID,0,VALID,23.8396,VALID,345,VALID,0.996484,
2009-04-03, 02:41:05,VALID,999.395,VALID,0,VALID,90.5788,VALID,0,VALID,23.8006,VALID,333,VALID,0.770703,
2009-04-03, 02:42:05,VALID,999.408,VALID,0,VALID,90.8077,VALID,0,VALID,23.7811,VALID,333,VALID,0.435156,
2009-04-03, 02:43:05,VALID,999.42,VALID,0,VALID,90.9527,VALID,0,VALID,23.742,VALID,333,VALID,0.312109,
2009-04-03, 02:44:05,VALID,999.422,VALID,0,VALID,91.0977,VALID,0,VALID,23.6817,VALID,333,VALID,0.40625,
2009-04-03, 02:45:05,VALID,999.397,VALID,0,VALID,91.3189,VALID,0,VALID,23.703,VALID,333,VALID,0.605078,
2009-04-03, 02:46:05,VALID,999.417,VALID,0,VALID,91.3342,VALID,0,VALID,23.6835,VALID,333,VALID,0.626172,
2009-04-03, 02:47:05,VALID,999.4,VALID,0,VALID,91.5402,VALID,0,VALID,23.664,VALID,333,VALID,0.454688,
2009-04-03, 02:48:05,VALID,999.4,VALID,0,VALID,91.5554,VALID,0,VALID,23.6445,VALID,333,VALID,0.564453,
2009-04-03, 02:49:05,VALID,999.374,VALID,0,VALID,91.6317,VALID,0,VALID,23.6232,VALID,333,VALID,0.482422,
2009-04-03, 02:50:05,VALID,999.403,VALID,0,VALID,91.7309,VALID,0,VALID,23.6054,VALID,333,VALID,0.560938,
2009-04-03, 02:51:05,VALID,999.41,VALID,0,VALID,91.8454,VALID,0,VALID,23.6054,VALID,335,VALID,0.588672,
2009-04-03, 02:52:05,VALID,999.387,VALID,0,VALID,91.9293,VALID,0,VALID,23.5841,VALID,336,VALID,0.311719,
2009-04-03, 02:53:05,VALID,999.406,VALID,0,VALID,92.0743,VALID,0,VALID,23.5841,VALID,336,VALID,0.40625,
2009-04-03, 02:54:05,VALID,999.413,VALID,0,VALID,92.1734,VALID,0,VALID,23.5646,VALID,336,VALID,0.460938,
2009-04-03, 02:55:05,VALID,999.436,VALID,0,VALID,92.0819,VALID,0,VALID,23.5256,VALID,336,VALID,0.880078,
2009-04-03, 02:56:05,VALID,999.452,VALID,0,VALID,92.3184,VALID,0,VALID,23.5451,VALID,336,VALID,0.80625,
2009-04-03, 02:57:05,VALID,999.466,VALID,0,VALID,92.326,VALID,0,VALID,23.5664,VALID,336,VALID,0.922656,
2009-04-03, 02:58:05,VALID,999.413,VALID,0,VALID,92.3566,VALID,0.112286,VALID,23.5451,VALID,325,VALID,0.908984,
2009-04-03, 02:59:05,VALID,999.387,VALID,0,VALID,92.5015,VALID,0,VALID,23.5451,VALID,306,VALID,0.736328,
2009-04-03, 03:00:05,VALID,999.354,VALID,0,VALID,92.5015,VALID,0,VALID,23.5256,VALID,275,VALID,0.600781,
2009-04-03, 03:01:05,VALID,999.387,VALID,0,VALID,92.4634,VALID,0,VALID,23.5061,VALID,276,VALID,0.50625,
2009-04-03, 03:02:05,VALID,999.395,VALID,0,VALID,92.5015,VALID,0,VALID,23.4848,VALID,272,VALID,0.491016,
2009-04-03, 03:03:05,VALID,999.392,VALID,0,VALID,92.4023,VALID,0,VALID,23.4866,VALID,272,VALID,0.473828,
2009-04-03, 03:04:05,VALID,999.436,VALID,0,VALID,92.41,VALID,0,VALID,23.5061,VALID,272,VALID,0.441406,
2009-04-03, 03:05:05,VALID,999.459,VALID,0,VALID,92.3947,VALID,0,VALID,23.5061,VALID,272,VALID,0.258594,
2009-04-03, 03:06:05,VALID,999.459,VALID,0,VALID,92.3794,VALID,0,VALID,23.4848,VALID,272,VALID,0.19375,
2009-04-03, 03:07:05,VALID,999.445,VALID,0,VALID,92.4786,VALID,0,VALID,23.5079,VALID,272,VALID,0,
2009-04-03, 03:08:05,VALID,999.471,VALID,0,VALID,92.5015,VALID,0,VALID,23.5274,VALID,272,VALID,0.285937,
2009-04-03, 03:09:05,VALID,999.472,VALID,0,VALID,92.4786,VALID,0,VALID,23.5274,VALID,278,VALID,0.458594,
2009-04-03, 03:10:05,VALID,999.483,VALID,0,VALID,92.5549,VALID,0,VALID,23.5079,VALID,284,VALID,0.505859,
2009-04-03, 03:11:05,VALID,999.488,VALID,0,VALID,92.6923,VALID,0,VALID,23.5079,VALID,334,VALID,0.773828,
2009-04-03, 03:12:05,VALID,999.528,VALID,0,VALID,92.8296,VALID,0,VALID,23.5061,VALID,356,VALID,1.05977,
2009-04-03, 03:13:05,VALID,999.531,VALID,0,VALID,92.7838,VALID,0,VALID,23.5274,VALID,358,VALID,1.07461,
2009-04-03, 03:14:05,VALID,999.586,VALID,0,VALID,92.8983,VALID,0,VALID,23.5487,VALID,359,VALID,0.81875,
2009-04-03, 03:15:05,VALID,999.588,VALID,0,VALID,92.9898,VALID,0,VALID,23.5274,VALID,359,VALID,0.753906,
2009-04-03, 03:16:05,VALID,999.608,VALID,0,VALID,92.9822,VALID,0,VALID,23.5274,VALID,359,VALID,0.358594,
2009-04-03, 03:17:05,VALID,999.641,VALID,0,VALID,92.9745,VALID,0,VALID,23.5274,VALID,359,VALID,0.313672,
2009-04-03, 03:18:05,VALID,999.628,VALID,0,VALID,92.9822,VALID,0,VALID,23.5274,VALID,312,VALID,0.522266,
2009-04-03, 03:19:05,VALID,999.612,VALID,0,VALID,92.9898,VALID,0,VALID,23.5469,VALID,245,VALID,0.842969,
2009-04-03, 03:20:05,VALID,999.597,VALID,0,VALID,92.9669,VALID,0,VALID,23.5859,VALID,221,VALID,0.998047,
2009-04-03, 03:21:05,VALID,999.574,VALID,0,VALID,92.8296,VALID,0,VALID,23.5841,VALID,210,VALID,1.12266,
2009-04-03, 03:22:05,VALID,999.555,VALID,0,VALID,92.5778,VALID,0,VALID,23.6445,VALID,202,VALID,1.34727,
2009-04-03, 03:23:05,VALID,999.543,VALID,0,VALID,91.9522,VALID,0,VALID,23.7012,VALID,191,VALID,1.44414,
2009-04-03, 03:24:05,VALID,999.531,VALID,0,VALID,91.2197,VALID,0,VALID,23.8201,VALID,198,VALID,1.44727,
2009-04-03, 03:25:05,VALID,999.495,VALID,0,VALID,89.4268,VALID,0,VALID,23.9177,VALID,200,VALID,1.92695,
2009-04-03, 03:26:05,VALID,999.468,VALID,0,VALID,89.8159,VALID,0,VALID,24.0153,VALID,205,VALID,1.6457,
2009-04-03, 03:27:05,VALID,999.473,VALID,0,VALID,89.8388,VALID,0,VALID,24.0543,VALID,208,VALID,1.34219,
2009-04-03, 03:28:05,VALID,999.47,VALID,0,VALID,89.6251,VALID,0,VALID,24.0543,VALID,200,VALID,1.25977,
2009-04-03, 03:29:05,VALID,999.511,VALID,0,VALID,89.6557,VALID,0,VALID,24.0933,VALID,214,VALID,1.13984,
2009-04-03, 03:30:05,VALID,999.571,VALID,0,VALID,89.4649,VALID,0,VALID,24.0738,VALID,201,VALID,1.25195,
2009-04-03, 03:31:05,VALID,999.581,VALID,0,VALID,89.7167,VALID,0,VALID,24.0525,VALID,236,VALID,0.619531,
2009-04-03, 03:32:05,VALID,999.564,VALID,0,VALID,89.7167,VALID,0,VALID,24.0348,VALID,241,VALID,0.904688,
2009-04-03, 03:33:05,VALID,999.533,VALID,0,VALID,89.9914,VALID,0,VALID,23.9762,VALID,249,VALID,0.735156,
2009-04-03, 03:34:05,VALID,999.539,VALID,0,VALID,90.2279,VALID,0,VALID,23.9372,VALID,297,VALID,0.590234,
2009-04-03, 03:35:05,VALID,999.473,VALID,0,VALID,90.8154,VALID,0,VALID,23.9177,VALID,319,VALID,0.892578,
2009-04-03, 03:36:05,VALID,999.504,VALID,0,VALID,91.1282,VALID,0,VALID,23.8591,VALID,333,VALID,1.09453,
2009-04-03, 03:37:05,VALID,999.474,VALID,0,VALID,91.3723,VALID,0,VALID,23.7988,VALID,333,VALID,0.760938,
2009-04-03, 03:38:05,VALID,999.452,VALID,0,VALID,91.647,VALID,0,VALID,23.7811,VALID,333,VALID,0.366797,
2009-04-03, 03:39:05,VALID,999.482,VALID,0,VALID,91.7462,VALID,0,VALID,23.7402,VALID,333,VALID,0,
2009-04-03, 03:40:05,VALID,999.467,VALID,0,VALID,91.8377,VALID,0,VALID,23.7225,VALID,333,VALID,0.06875,
2009-04-03, 03:41:05,VALID,999.458,VALID,0,VALID,91.9674,VALID,0,VALID,23.7225,VALID,172,VALID,0.549609,
2009-04-03, 03:42:05,VALID,999.468,VALID,0,VALID,92.1506,VALID,0,VALID,23.703,VALID,173,VALID,0.26875,
2009-04-03, 03:43:05,VALID,999.492,VALID,0,VALID,92.2497,VALID,0,VALID,23.6622,VALID,173,VALID,0.0617188,
2009-04-03, 03:44:05,VALID,999.539,VALID,0,VALID,92.5702,VALID,0,VALID,23.6835,VALID,54,VALID,1.02031,
2009-04-03, 03:45:05,VALID,999.57,VALID,0,VALID,92.7151,VALID,0,VALID,23.6622,VALID,28,VALID,1.4875,